Time,TemperatureF,DewpointF,PressureIn,WindDirection,WindDirectionDegrees,WindSpeedMPH,WindSpeedGustMPH,Humidity,HourlyPrecipIn,Conditions,Clouds,dailyrainin,SoftwareType,DateUTC
2013-05-31 00:00:00,73.2,24.3,29.03,SSE,152,0.0,0.0,16,0.00,RA,,0.00,WeatherDisplay:10.37,2013-05-31 04:00:00,
2013-05-31 00:05:00,73.1,24.2,29.03,SSE,153,0.0,4.0,16,0.00,RA,,0.00,WeatherDisplay:10.37,2013-05-31 04:05:00,
2013-05-31 00:10:00,73.2,28.5,29.03,SSE,147,3.0,6.0,19,0.00,CLR,,0.00,WeatherDisplay:10.37,2013-05-31 04:10:00,
2013-05-31 00:15:00,73.2,28.5,29.03,South,170,0.0,6.0,19,0.00,CLR,,0.00,WeatherDisplay:10.37,2013-05-31 04:15:00,
2013-05-31 00:20:00,73.3,28.5,29.03,SSW,202,0.0,4.0,19,0.00,CLR,,0.00,WeatherDisplay:10.37,2013-05-31 04:20:00,
2013-05-31 00:25:00,73.2,28.5,29.03,South,180,1.0,5.0,19,0.00,CLR,,0.00,WeatherDisplay:10.37,2013-05-31 04:25:00,
2013-05-31 00:30:00,73.4,27.3,29.03,SSW,194,2.0,6.0,18,0.00,CLR,,0.00,WeatherDisplay:10.37,2013-05-31 04:30:00,
2013-05-31 00:35:00,73.4,27.3,29.03,SSW,203,0.0,3.0,18,0.00,CLR,,0.00,WeatherDisplay:10.37,2013-05-31 04:35:00,
2013-05-31 00:40:00,73.4,27.3,29.03,SSE,163,0.0,4.0,18,0.00,CLR,,0.00,WeatherDisplay:10.37,2013-05-31 04:40:00,
2013-05-31 00:45:00,73.4,27.3,29.03,SSE,161,0.0,6.0,18,0.00,CLR,,0.00,WeatherDisplay:10.37,2013-05-31 04:45:00,
2013-05-31 00:50:00,73.4,27.3,29.03,SSE,162,2.0,6.0,18,0.00,CLR,,0.00,WeatherDisplay:10.37,2013-05-31 04:50:00,
2013-05-31 00:55:00,73.6,24.6,29.03,South,170,0.0,6.0,16,0.00,CLR,,0.00,WeatherDisplay:10.37,2013-05-31 04:55:00,
2013-05-31 01:00:00,73.6,24.6,29.03,SSE,157,2.0,8.0,16,0.00,CLR,,0.00,WeatherDisplay:10.37,2013-05-31 05:00:00,
2013-05-31 01:05:00,73.6,24.6,29.03,South,171,2.0,6.0,16,0.00,CLR,,0.00,WeatherDisplay:10.37,2013-05-31 05:05:00,
2013-05-31 01:10:00,73.6,24.6,29.03,SSW,195,2.0,6.0,16,0.00,CLR,,0.00,WeatherDisplay:10.37,2013-05-31 05:10:00,
2013-05-31 01:15:00,73.6,24.6,29.03,SSW,205,0.0,4.0,16,0.00,CLR,,0.00,WeatherDisplay:10.37,2013-05-31 05:15:00,
2013-05-31 01:20:00,73.4,24.4,29.03,SSE,167,2.0,7.0,16,0.00,CLR,,0.00,WeatherDisplay:10.37,2013-05-31 05:20:00,
2013-05-31 01:25:00,73.6,24.6,29.03,SSE,150,0.0,6.0,16,0.00,CLR,,0.00,WeatherDisplay:10.37,2013-05-31 05:25:00,
2013-05-31 01:30:00,73.4,24.4,29.03,SSE,163,2.0,5.0,16,0.00,CLR,,0.00,WeatherDisplay:10.37,2013-05-31 05:30:00,
2013-05-31 01:35:00,73.4,24.4,29.03,SSW,193,0.0,5.0,16,0.00,CLR,,0.00,WeatherDisplay:10.37,2013-05-31 05:35:00,
2013-05-31 01:40:00,73.4,24.4,29.03,South,188,0.0,5.0,16,0.00,CLR,,0.00,WeatherDisplay:10.37,2013-05-31 05:40:00,
2013-05-31 01:45:00,73.4,24.4,29.03,South,171,0.0,6.0,16,0.00,CLR,,0.00,WeatherDisplay:10.37,2013-05-31 05:45:00,
2013-05-31 01:50:00,73.4,24.4,29.03,South,169,3.0,7.0,16,0.00,CLR,,0.00,WeatherDisplay:10.37,2013-05-31 05:50:00,
2013-05-31 01:55:00,73.6,24.6,29.03,South,174,0.0,4.0,16,0.00,CLR,,0.00,WeatherDisplay:10.37,2013-05-31 05:55:00,
2013-05-31 02:00:00,73.6,24.6,29.03,South,181,2.0,6.0,16,0.00,CLR,,0.00,WeatherDisplay:10.37,2013-05-31 06:00:00,
2013-05-31 02:05:00,73.6,24.6,29.03,South,180,1.0,6.0,16,0.00,CLR,,0.00,WeatherDisplay:10.37,2013-05-31 06:05:00,
2013-05-31 02:10:00,73.4,24.4,29.03,South,185,3.0,6.0,16,0.00,CLR,,0.00,WeatherDisplay:10.37,2013-05-31 06:10:00,
2013-05-31 02:15:00,73.4,24.4,29.03,South,178,3.0,7.0,16,0.00,CLR,,0.00,WeatherDisplay:10.37,2013-05-31 06:15:00,
2013-05-31 02:20:00,73.6,24.6,29.03,SSE,165,2.0,8.0,16,0.00,CLR,,0.00,WeatherDisplay:10.37,2013-05-31 06:20:00,
2013-05-31 02:25:00,73.4,24.4,29.03,SSE,166,2.0,6.0,16,0.00,CLR,,0.00,WeatherDisplay:10.37,2013-05-31 06:25:00,
2013-05-31 02:30:00,73.4,24.4,29.03,SSW,202,2.0,6.0,16,0.00,CLR,,0.00,WeatherDisplay:10.37,2013-05-31 06:30:00,
2013-05-31 02:35:00,73.4,24.4,29.03,SSW,203,0.0,6.0,16,0.00,CLR,,0.00,WeatherDisplay:10.37,2013-05-31 06:35:00,
2013-05-31 02:40:00,73.4,24.4,29.03,SSW,201,3.0,7.0,16,0.00,CLR,,0.00,WeatherDisplay:10.37,2013-05-31 06:40:00,
2013-05-31 02:45:00,73.4,24.4,29.03,SSW,195,1.0,8.0,16,0.00,CLR,,0.00,WeatherDisplay:10.37,2013-05-31 06:45:00,
2013-05-31 02:50:00,73.2,24.3,29.03,South,178,2.0,8.0,16,0.00,CLR,,0.00,WeatherDisplay:10.37,2013-05-31 06:50:00,
2013-05-31 02:55:00,73.2,24.3,29.00,South,171,2.0,4.0,16,0.00,CLR,,0.00,WeatherDisplay:10.37,2013-05-31 06:55:00,
2013-05-31 03:00:00,73.1,24.2,29.00,South,182,2.0,10.0,16,0.00,CLR,,0.00,WeatherDisplay:10.37,2013-05-31 07:00:00,
2013-05-31 03:05:00,73.0,24.2,29.00,South,180,2.0,6.0,16,0.00,CLR,,0.00,WeatherDisplay:10.37,2013-05-31 07:05:00,
2013-05-31 03:10:00,72.9,24.0,29.00,South,181,2.0,5.0,16,0.00,CLR,,0.00,WeatherDisplay:10.37,2013-05-31 07:10:00,
2013-05-31 03:15:00,72.8,24.0,29.00,SSW,210,2.0,8.0,16,0.00,CLR,,0.00,WeatherDisplay:10.37,2013-05-31 07:15:00,
2013-05-31 03:20:00,72.7,23.9,29.00,SSW,195,1.0,6.0,16,0.00,CLR,,0.00,WeatherDisplay:10.37,2013-05-31 07:20:00,
2013-05-31 03:25:00,72.5,23.7,29.00,South,187,0.0,6.0,16,0.00,CLR,,0.00,WeatherDisplay:10.37,2013-05-31 07:25:00,
2013-05-31 03:30:00,72.5,23.7,29.00,SSW,195,3.0,6.0,16,0.00,CLR,,0.00,WeatherDisplay:10.37,2013-05-31 07:30:00,
2013-05-31 03:35:00,72.5,23.7,29.00,South,187,3.0,6.0,16,0.00,CLR,,0.00,WeatherDisplay:10.37,2013-05-31 07:35:00,
2013-05-31 03:40:00,72.5,23.7,29.00,South,177,3.0,6.0,16,0.00,CLR,,0.00,WeatherDisplay:10.37,2013-05-31 07:40:00,
2013-05-31 03:45:00,72.5,23.7,29.00,South,175,2.0,5.0,16,0.00,CLR,,0.00,WeatherDisplay:10.37,2013-05-31 07:45:00,
2013-05-31 03:50:00,72.3,23.6,29.00,South,175,0.0,5.0,16,0.00,CLR,,0.00,WeatherDisplay:10.37,2013-05-31 07:50:00,
2013-05-31 03:55:00,72.3,23.6,29.00,SSE,158,2.0,6.0,16,0.00,CLR,,0.00,WeatherDisplay:10.37,2013-05-31 07:55:00,
2013-05-31 04:00:00,72.1,27.6,29.00,South,188,1.0,6.0,19,0.00,CLR,,0.00,WeatherDisplay:10.37,2013-05-31 08:00:00,
2013-05-31 04:05:00,72.1,27.6,29.00,SSW,194,2.0,6.0,19,0.00,CLR,,0.00,WeatherDisplay:10.37,2013-05-31 08:05:00,
2013-05-31 04:10:00,72.0,27.4,29.00,SSW,208,3.0,6.0,19,0.00,CLR,,0.00,WeatherDisplay:10.37,2013-05-31 08:10:00,
2013-05-31 04:15:00,72.1,27.6,29.00,SSW,204,3.0,6.0,19,0.00,CLR,,0.00,WeatherDisplay:10.37,2013-05-31 08:15:00,
2013-05-31 04:20:00,72.3,27.7,29.00,South,187,2.0,6.0,19,0.00,CLR,,0.00,WeatherDisplay:10.37,2013-05-31 08:20:00,
2013-05-31 04:25:00,72.1,23.4,29.00,South,183,3.0,6.0,16,0.00,CLR,,0.00,WeatherDisplay:10.37,2013-05-31 08:25:00,
2013-05-31 04:30:00,72.0,27.4,29.00,South,179,2.0,6.0,19,0.00,CLR,,0.00,WeatherDisplay:10.37,2013-05-31 08:30:00,
2013-05-31 04:35:00,72.0,27.4,29.00,SSE,163,2.0,7.0,19,0.00,CLR,,0.00,WeatherDisplay:10.37,2013-05-31 08:35:00,
2013-05-31 04:40:00,72.0,27.4,29.00,South,175,2.0,6.0,19,0.00,CLR,,0.00,WeatherDisplay:10.37,2013-05-31 08:40:00,
2013-05-31 04:45:00,72.0,27.4,29.00,SSW,198,1.0,4.0,19,0.00,CLR,,0.00,WeatherDisplay:10.37,2013-05-31 08:45:00,
2013-05-31 04:50:00,71.8,27.3,29.00,South,177,0.0,6.0,19,0.00,CLR,,0.00,WeatherDisplay:10.37,2013-05-31 08:50:00,
2013-05-31 04:55:00,71.8,27.3,29.00,SSE,165,0.0,3.0,19,0.00,CLR,,0.00,WeatherDisplay:10.37,2013-05-31 08:55:00,
2013-05-31 05:00:00,71.8,27.3,29.00,South,171,1.0,7.0,19,0.00,CLR,,0.00,WeatherDisplay:10.37,2013-05-31 09:00:00,
2013-05-31 05:05:00,71.9,27.3,29.00,South,179,3.0,8.0,19,0.00,CLR,,0.00,WeatherDisplay:10.37,2013-05-31 09:05:00,
2013-05-31 05:10:00,72.0,27.4,29.00,South,186,2.0,6.0,19,0.00,CLR,,0.00,WeatherDisplay:10.37,2013-05-31 09:10:00,
2013-05-31 05:15:00,72.0,27.4,29.00,South,183,2.0,8.0,19,0.00,CLR,,0.00,WeatherDisplay:10.37,2013-05-31 09:15:00,
2013-05-31 05:20:00,72.0,27.4,29.00,South,182,5.0,8.0,19,0.00,CLR,,0.00,WeatherDisplay:10.37,2013-05-31 09:20:00,
2013-05-31 05:25:00,72.0,27.4,29.00,South,169,0.0,6.0,19,0.00,CLR,,0.00,WeatherDisplay:10.37,2013-05-31 09:25:00,
2013-05-31 05:30:00,71.9,27.4,29.00,South,170,0.0,6.0,19,0.00,CLR,,0.00,WeatherDisplay:10.37,2013-05-31 09:30:00,
2013-05-31 05:35:00,72.0,27.4,29.00,SSW,200,2.0,6.0,19,0.00,CLR,,0.00,WeatherDisplay:10.37,2013-05-31 09:35:00,
2013-05-31 05:40:00,72.0,27.4,29.00,South,180,1.0,6.0,19,0.00,CLR,,0.00,WeatherDisplay:10.37,2013-05-31 09:40:00,
2013-05-31 05:45:00,72.0,27.4,29.00,South,184,3.0,8.0,19,0.00,CLR,,0.00,WeatherDisplay:10.37,2013-05-31 09:45:00,
2013-05-31 05:50:00,71.8,27.3,29.00,SW,215,5.0,10.0,19,0.00,CLR,,0.00,WeatherDisplay:10.37,2013-05-31 09:50:00,
2013-05-31 05:55:00,71.8,27.3,29.00,SSW,207,2.0,8.0,19,0.00,CLR,,0.00,WeatherDisplay:10.37,2013-05-31 09:55:00,
2013-05-31 06:00:00,72.0,27.4,29.00,South,170,3.0,8.0,19,0.00,CLR,,0.00,WeatherDisplay:10.37,2013-05-31 10:00:00,
2013-05-31 06:05:00,71.8,27.3,29.00,SSW,194,3.0,6.0,19,0.00,CLR,,0.00,WeatherDisplay:10.37,2013-05-31 10:05:00,
2013-05-31 06:10:00,71.8,27.3,29.00,SSW,204,5.0,6.0,19,0.00,CLR,,0.00,WeatherDisplay:10.37,2013-05-31 10:10:00,
2013-05-31 06:15:00,71.8,27.3,29.00,SSW,203,1.0,5.0,19,0.00,CLR,,0.00,WeatherDisplay:10.37,2013-05-31 10:15:00,
2013-05-31 06:20:00,72.0,23.3,29.00,SSW,198,2.0,9.0,16,0.00,CLR,,0.00,WeatherDisplay:10.37,2013-05-31 10:20:00,
2013-05-31 06:25:00,72.0,23.3,28.97,South,189,2.0,6.0,16,0.00,CLR,,0.00,WeatherDisplay:10.37,2013-05-31 10:25:00,
2013-05-31 06:30:00,72.1,23.4,28.97,South,185,5.0,6.0,16,0.00,CLR,,0.00,WeatherDisplay:10.37,2013-05-31 10:30:00,
2013-05-31 06:40:00,72.9,24.0,29.00,South,188,3.0,6.0,16,0.00,CLR,,0.00,WeatherDisplay:10.37,2013-05-31 10:40:00,
2013-05-31 06:45:00,73.2,24.3,29.00,South,187,3.0,8.0,16,0.00,CLR,,0.00,WeatherDisplay:10.37,2013-05-31 10:45:00,
2013-05-31 06:50:00,73.0,24.2,29.00,SSW,199,3.0,6.0,16,0.00,CLR,,0.00,WeatherDisplay:10.37,2013-05-31 10:50:00,
2013-05-31 06:55:00,72.9,24.0,29.00,South,190,2.0,6.0,16,0.00,CLR,,0.00,WeatherDisplay:10.37,2013-05-31 10:55:00,
2013-05-31 07:00:00,72.7,23.9,29.00,South,178,3.0,8.0,16,0.00,CLR,,0.00,WeatherDisplay:10.37,2013-05-31 11:00:00,
2013-05-31 07:05:00,72.7,23.9,29.00,SSW,193,3.0,8.0,16,0.00,CLR,,0.00,WeatherDisplay:10.37,2013-05-31 11:05:00,
2013-05-31 07:10:00,72.7,23.9,29.00,SSW,198,2.0,9.0,16,0.00,CLR,,0.00,WeatherDisplay:10.37,2013-05-31 11:10:00,
2013-05-31 07:15:00,72.7,23.9,29.00,South,190,3.0,6.0,16,0.00,CLR,,0.00,WeatherDisplay:10.37,2013-05-31 11:15:00,
2013-05-31 07:20:00,72.7,23.9,29.00,South,189,5.0,6.0,16,0.00,CLR,,0.00,WeatherDisplay:10.37,2013-05-31 11:20:00,
2013-05-31 07:25:00,72.9,24.0,29.00,SSW,206,3.0,7.0,16,0.00,CLR,,0.00,WeatherDisplay:10.37,2013-05-31 11:25:00,
2013-05-31 07:30:00,73.0,24.2,29.00,SSW,210,1.0,6.0,16,0.00,CLR,,0.00,WeatherDisplay:10.37,2013-05-31 11:30:00,
2013-05-31 07:35:00,72.9,24.0,29.00,SW,220,2.0,8.0,16,0.00,CLR,,0.00,WeatherDisplay:10.37,2013-05-31 11:35:00,
2013-05-31 07:40:00,72.9,24.0,29.00,SW,230,3.0,7.0,16,0.00,CLR,,0.00,WeatherDisplay:10.37,2013-05-31 11:40:00,
2013-05-31 07:45:00,72.9,24.0,29.00,WSW,243,9.0,12.0,16,0.00,CLR,,0.00,WeatherDisplay:10.37,2013-05-31 11:45:00,
2013-05-31 07:50:00,72.6,23.8,29.00,West,260,6.0,10.0,16,0.00,CLR,,0.00,WeatherDisplay:10.37,2013-05-31 11:50:00,
2013-05-31 07:55:00,72.1,23.4,29.00,West,260,7.0,13.0,16,0.00,CLR,,0.00,WeatherDisplay:10.37,2013-05-31 11:55:00,
2013-05-31 08:00:00,71.8,23.1,29.00,West,264,7.0,10.0,16,0.00,CLR,,0.00,WeatherDisplay:10.37,2013-05-31 12:00:00,
2013-05-31 08:05:00,72.0,23.3,29.00,West,263,7.0,11.0,16,0.00,CLR,,0.00,WeatherDisplay:10.37,2013-05-31 12:05:00,
2013-05-31 08:10:00,72.1,23.4,29.00,WSW,255,5.0,8.0,16,0.00,CLR,,0.00,WeatherDisplay:10.37,2013-05-31 12:10:00,
2013-05-31 08:15:00,72.0,23.3,29.00,WSW,247,5.0,6.0,16,0.00,CLR,,0.00,WeatherDisplay:10.37,2013-05-31 12:15:00,
2013-05-31 08:20:00,72.1,23.4,29.00,WSW,253,3.0,6.0,16,0.00,CLR,,0.00,WeatherDisplay:10.37,2013-05-31 12:20:00,
2013-05-31 08:25:00,72.3,23.6,29.00,WSW,250,5.0,6.0,16,0.00,CLR,,0.00,WeatherDisplay:10.37,2013-05-31 12:25:00,
2013-05-31 08:30:00,72.5,23.7,29.00,WSW,252,3.0,6.0,16,0.00,CLR,,0.00,WeatherDisplay:10.37,2013-05-31 12:30:00,
2013-05-31 08:35:00,72.9,24.0,29.00,WSW,257,5.0,6.0,16,0.00,CLR,,0.00,WeatherDisplay:10.37,2013-05-31 12:35:00,
2013-05-31 08:40:00,72.7,23.9,29.03,WSW,253,5.0,8.0,16,0.00,CLR,,0.00,WeatherDisplay:10.37,2013-05-31 12:40:00,
2013-05-31 08:45:00,72.3,23.6,29.03,WSW,252,6.0,8.0,16,0.00,CLR,,0.00,WeatherDisplay:10.37,2013-05-31 12:45:00,
2013-05-31 08:50:00,72.3,23.6,29.03,WSW,255,3.0,6.0,16,0.00,CLR,,0.00,WeatherDisplay:10.37,2013-05-31 12:50:00,
2013-05-31 08:55:00,72.7,23.9,29.03,WSW,242,5.0,6.0,16,0.00,CLR,,0.00,WeatherDisplay:10.37,2013-05-31 12:55:00,
2013-05-31 09:00:00,72.9,24.1,29.03,WSW,237,2.0,6.0,16,0.00,CLR,,0.00,WeatherDisplay:10.37,2013-05-31 13:00:00,
2013-05-31 09:05:00,72.9,24.0,29.03,WSW,237,2.0,6.0,16,0.00,CLR,,0.00,WeatherDisplay:10.37,2013-05-31 13:05:00,
2013-05-31 09:10:00,72.5,23.7,29.03,WSW,242,1.0,4.0,16,0.00,CLR,,0.00,WeatherDisplay:10.37,2013-05-31 13:10:00,
2013-05-31 09:15:00,71.6,27.1,29.03,WSW,244,2.0,4.0,19,0.00,CLR,,0.00,WeatherDisplay:10.37,2013-05-31 13:15:00,
2013-05-31 09:20:00,71.2,26.8,29.03,WSW,240,0.0,2.0,19,0.00,CLR,,0.00,WeatherDisplay:10.37,2013-05-31 13:20:00,
2013-05-31 09:25:00,71.1,27.9,29.00,WSW,241,0.0,6.0,20,0.00,CLR,,0.00,WeatherDisplay:10.37,2013-05-31 13:25:00,
2013-05-31 09:30:00,70.7,30.0,29.00,WSW,244,2.0,4.0,22,0.00,CLR,,0.00,WeatherDisplay:10.37,2013-05-31 13:30:00,
2013-05-31 09:35:00,70.2,29.5,29.00,WSW,243,3.0,5.0,22,0.04,RA,,0.04,WeatherDisplay:10.37,2013-05-31 13:35:00,
2013-05-31 09:40:00,69.6,29.1,29.02,SW,216,0.0,3.0,22,0.04,RA,,0.08,WeatherDisplay:10.37,2013-05-31 13:40:00,
2013-05-31 09:50:00,68.9,29.5,29.03,SW,225,0.0,3.0,23,0.00,RA,,0.12,WeatherDisplay:10.37,2013-05-31 13:50:00,
2013-05-31 09:55:00,68.7,29.4,29.03,SSW,212,0.0,4.0,23,0.04,RA,,0.16,WeatherDisplay:10.37,2013-05-31 13:55:00,
2013-05-31 10:00:00,68.7,29.4,29.03,South,179,0.0,4.0,23,0.00,RA,,0.16,WeatherDisplay:10.37,2013-05-31 14:00:00,
2013-05-31 10:05:00,68.7,29.4,29.03,SSE,168,2.0,4.0,23,0.04,RA,,0.20,WeatherDisplay:10.37,2013-05-31 14:05:00,
2013-05-31 10:10:00,68.7,29.4,29.00,SSE,158,0.0,6.0,23,0.00,RA,,0.20,WeatherDisplay:10.37,2013-05-31 14:10:00,
2013-05-31 10:15:00,68.7,29.4,29.00,SSE,152,2.0,6.0,23,0.00,CLR,,0.20,WeatherDisplay:10.37,2013-05-31 14:15:00,
2013-05-31 10:20:00,68.7,29.4,29.00,SE,139,5.0,6.0,23,0.00,CLR,,0.20,WeatherDisplay:10.37,2013-05-31 14:20:00,
2013-05-31 10:30:00,68.7,29.4,29.00,SE,138,3.0,6.0,23,0.00,CLR,,0.20,WeatherDisplay:10.37,2013-05-31 14:30:00,
2013-05-31 10:40:00,69.3,32.0,29.00,South,180,2.0,6.0,25,0.00,CLR,,0.20,WeatherDisplay:10.37,2013-05-31 14:40:00,
2013-05-31 10:45:00,70.0,34.4,29.00,SW,229,2.0,8.0,27,0.00,CLR,,0.20,WeatherDisplay:10.37,2013-05-31 14:45:00,
2013-05-31 10:50:00,70.0,34.4,29.00,SW,231,2.0,8.0,27,0.04,RA,,0.24,WeatherDisplay:10.37,2013-05-31 14:50:00,
2013-05-31 10:55:00,70.2,33.7,29.03,SW,227,1.0,6.0,26,0.00,RA,,0.24,WeatherDisplay:10.37,2013-05-31 14:55:00,
2013-05-31 11:00:00,70.3,33.8,29.03,SSW,212,2.0,6.0,26,0.00,,,0.24,WeatherDisplay:10.37,2013-05-31 15:00:00,
2013-05-31 11:05:00,70.5,34.0,29.03,SSW,192,0.0,9.0,26,0.00,CLR,,0.24,WeatherDisplay:10.37,2013-05-31 15:05:00,
2013-05-31 11:10:00,70.9,34.3,29.03,SSW,200,3.0,6.0,26,0.00,CLR,,0.24,WeatherDisplay:10.37,2013-05-31 15:10:00,
2013-05-31 11:15:00,71.1,33.4,29.03,SSW,199,3.0,6.0,25,0.00,CLR,,0.24,WeatherDisplay:10.37,2013-05-31 15:15:00,
2013-05-31 11:20:00,71.5,33.8,29.03,SSW,199,5.0,6.0,25,0.00,CLR,,0.24,WeatherDisplay:10.37,2013-05-31 15:20:00,
2013-05-31 11:25:00,71.6,32.9,29.03,SSW,196,6.0,8.0,24,0.00,CLR,,0.24,WeatherDisplay:10.37,2013-05-31 15:25:00,
2013-05-31 11:30:00,71.8,31.9,29.03,South,186,3.0,6.0,23,0.00,CLR,,0.24,WeatherDisplay:10.37,2013-05-31 15:30:00,
2013-05-31 11:35:00,71.8,32.0,29.03,South,186,0.0,8.0,23,0.00,CLR,,0.24,WeatherDisplay:10.37,2013-05-31 15:35:00,
2013-05-31 11:40:00,71.8,30.9,29.00,SSE,161,2.0,8.0,22,0.00,CLR,,0.24,WeatherDisplay:10.37,2013-05-31 15:40:00,
2013-05-31 11:45:00,72.0,31.0,29.00,SSW,198,3.0,9.0,22,0.00,CLR,,0.24,WeatherDisplay:10.37,2013-05-31 15:45:00,
2013-05-31 11:50:00,72.3,32.4,29.00,SW,215,3.0,8.0,23,0.00,CLR,,0.24,WeatherDisplay:10.37,2013-05-31 15:50:00,
2013-05-31 11:55:00,72.5,31.5,29.00,SW,224,3.0,6.0,22,0.00,CLR,,0.24,WeatherDisplay:10.37,2013-05-31 15:55:00,
2013-05-31 12:00:00,72.8,31.7,29.00,SW,220,2.0,6.0,22,0.00,CLR,,0.24,WeatherDisplay:10.37,2013-05-31 16:00:00,
2013-05-31 12:05:00,72.9,31.8,29.00,SW,224,3.0,8.0,22,0.00,CLR,,0.24,WeatherDisplay:10.37,2013-05-31 16:05:00,
2013-05-31 12:10:00,73.0,31.9,29.00,SW,234,6.0,9.0,22,0.00,CLR,,0.24,WeatherDisplay:10.37,2013-05-31 16:10:00,
2013-05-31 12:15:00,72.7,31.7,29.00,SW,234,3.0,8.0,22,0.00,CLR,,0.24,WeatherDisplay:10.37,2013-05-31 16:15:00,
2013-05-31 12:20:00,72.3,31.3,29.00,SW,230,3.0,6.0,22,0.00,CLR,,0.24,WeatherDisplay:10.37,2013-05-31 16:20:00,
2013-05-31 12:25:00,72.0,31.0,29.00,SW,236,3.0,8.0,22,0.00,CLR,,0.24,WeatherDisplay:10.37,2013-05-31 16:25:00,
2013-05-31 12:30:00,71.8,30.9,29.00,SSW,212,2.0,4.0,22,0.00,CLR,,0.24,WeatherDisplay:10.37,2013-05-31 16:30:00,
2013-05-31 12:35:00,71.8,30.9,29.00,South,190,0.0,4.0,22,0.00,CLR,,0.24,WeatherDisplay:10.37,2013-05-31 16:35:00,
2013-05-31 12:40:00,71.8,32.0,29.03,SW,221,3.0,8.0,23,0.00,CLR,,0.24,WeatherDisplay:10.37,2013-05-31 16:40:00,
2013-05-31 12:45:00,72.0,32.2,29.03,WSW,238,2.0,9.0,23,0.00,CLR,,0.24,WeatherDisplay:10.37,2013-05-31 16:45:00,
2013-05-31 12:50:00,72.3,32.4,29.03,SW,230,0.0,8.0,23,0.00,CLR,,0.24,WeatherDisplay:10.37,2013-05-31 16:50:00,
2013-05-31 12:55:00,72.5,32.6,29.02,SW,235,7.0,12.0,23,0.00,CLR,,0.24,WeatherDisplay:10.37,2013-05-31 16:55:00,
2013-05-31 13:00:00,72.7,31.6,29.00,SW,232,3.0,8.0,22,0.00,CLR,,0.24,WeatherDisplay:10.37,2013-05-31 17:00:00,
2013-05-31 13:10:00,72.9,31.8,29.03,SW,220,6.0,10.0,22,0.00,CLR,,0.24,WeatherDisplay:10.37,2013-05-31 17:10:00,
2013-05-31 13:15:00,73.0,33.0,29.03,SW,228,3.0,8.0,23,0.00,CLR,,0.24,WeatherDisplay:10.37,2013-05-31 17:15:00,
2013-05-31 13:20:00,73.0,31.9,29.03,SW,224,5.0,10.0,22,0.00,CLR,,0.24,WeatherDisplay:10.37,2013-05-31 17:20:00,
2013-05-31 13:25:00,72.9,31.8,29.03,SW,232,3.0,6.0,22,0.00,CLR,,0.24,WeatherDisplay:10.37,2013-05-31 17:25:00,
2013-05-31 13:30:00,72.4,31.4,29.03,SW,232,3.0,13.0,22,0.00,CLR,,0.24,WeatherDisplay:10.37,2013-05-31 17:30:00,
2013-05-31 13:35:00,72.4,33.5,29.03,SW,227,2.0,13.0,24,0.00,CLR,,0.24,WeatherDisplay:10.37,2013-05-31 17:35:00,
2013-05-31 13:40:00,72.1,32.3,29.03,SW,228,2.0,6.0,23,0.00,CLR,,0.24,WeatherDisplay:10.37,2013-05-31 17:40:00,
2013-05-31 13:50:00,71.6,31.8,29.03,SSW,212,1.0,5.0,23,0.00,RA,,0.28,WeatherDisplay:10.37,2013-05-31 17:50:00,
2013-05-31 13:55:00,71.4,32.7,29.00,SW,214,5.0,8.0,24,0.00,CLR,,0.28,WeatherDisplay:10.37,2013-05-31 17:55:00,
2013-05-31 14:00:00,71.4,32.7,29.00,SW,221,0.0,6.0,24,0.00,CLR,,0.28,WeatherDisplay:10.37,2013-05-31 18:00:00,
2013-05-31 14:05:00,71.4,33.7,29.00,SW,220,0.0,4.0,25,0.00,CLR,,0.28,WeatherDisplay:10.37,2013-05-31 18:05:00,
2013-05-31 14:10:00,71.9,33.1,29.00,South,174,0.0,6.0,24,0.00,CLR,,0.28,WeatherDisplay:10.37,2013-05-31 18:10:00,
2013-05-31 14:15:00,72.6,34.7,29.00,SSE,164,0.0,5.0,25,0.00,CLR,,0.28,WeatherDisplay:10.37,2013-05-31 18:15:00,
2013-05-31 14:25:00,73.2,34.2,28.97,SSE,164,0.0,6.0,24,0.00,CLR,,0.28,WeatherDisplay:10.37,2013-05-31 18:25:00,
2013-05-31 14:30:00,73.2,34.2,28.97,SSE,166,2.0,5.0,24,0.00,CLR,,0.28,WeatherDisplay:10.37,2013-05-31 18:30:00,
2013-05-31 14:35:00,73.2,34.2,28.97,South,174,0.0,5.0,24,0.00,CLR,,0.28,WeatherDisplay:10.37,2013-05-31 18:35:00,
2013-05-31 14:40:00,73.2,34.2,28.97,SSW,205,2.0,4.0,24,0.00,CLR,,0.28,WeatherDisplay:10.37,2013-05-31 18:40:00,
2013-05-31 14:45:00,73.2,34.2,28.97,SSW,205,0.0,4.0,24,0.00,CLR,,0.28,WeatherDisplay:10.37,2013-05-31 18:45:00,
2013-05-31 14:50:00,72.8,32.8,28.97,South,171,0.0,4.0,23,0.00,CLR,,0.28,WeatherDisplay:10.37,2013-05-31 18:50:00,
2013-05-31 14:55:00,72.7,33.8,28.97,South,170,0.0,3.0,24,0.00,CLR,,0.28,WeatherDisplay:10.37,2013-05-31 18:55:00,
2013-05-31 15:00:00,72.7,33.8,28.97,SSE,162,2.0,8.0,24,0.00,CLR,,0.28,WeatherDisplay:10.37,2013-05-31 19:00:00,
2013-05-31 15:05:00,72.5,33.6,28.97,South,169,3.0,4.0,24,0.00,CLR,,0.28,WeatherDisplay:10.37,2013-05-31 19:05:00,
2013-05-31 15:10:00,72.3,33.5,28.97,South,172,3.0,6.0,24,0.00,CLR,,0.28,WeatherDisplay:10.37,2013-05-31 19:10:00,
2013-05-31 15:15:00,72.1,33.3,28.97,SW,215,5.0,8.0,24,0.00,CLR,,0.28,WeatherDisplay:10.37,2013-05-31 19:15:00,
2013-05-31 15:20:00,70.8,33.2,28.97,WSW,256,6.0,10.0,25,0.24,RA,,0.51,WeatherDisplay:10.37,2013-05-31 19:20:00,
2013-05-31 15:25:00,70.2,32.7,28.97,WSW,258,5.0,12.0,25,0.04,RA,,0.55,WeatherDisplay:10.37,2013-05-31 19:25:00,
2013-05-31 15:30:00,70.9,37.0,28.97,WSW,246,3.0,8.0,29,0.00,RA,,0.55,WeatherDisplay:10.37,2013-05-31 19:30:00,
2013-05-31 15:35:00,72.2,39.8,28.97,WSW,242,2.0,6.0,31,0.00,CLR,,0.55,WeatherDisplay:10.37,2013-05-31 19:35:00,
2013-05-31 15:40:00,73.4,40.9,28.97,SW,233,3.0,8.0,31,0.00,CLR,,0.55,WeatherDisplay:10.37,2013-05-31 19:40:00,
2013-05-31 15:45:00,73.8,40.4,28.97,SW,217,0.0,6.0,30,0.00,CLR,,0.55,WeatherDisplay:10.37,2013-05-31 19:45:00,
2013-05-31 15:50:00,73.7,40.3,28.97,SW,225,3.0,8.0,30,0.00,CLR,,0.55,WeatherDisplay:10.37,2013-05-31 19:50:00,
2013-05-31 15:55:00,73.3,37.3,28.97,SW,226,3.0,8.0,27,0.00,CLR,,0.55,WeatherDisplay:10.37,2013-05-31 19:55:00,
2013-05-31 16:00:00,73.4,35.4,28.97,SW,224,5.0,13.0,25,0.00,CLR,,0.55,WeatherDisplay:10.37,2013-05-31 20:00:00,
2013-05-31 16:05:00,74.0,35.9,28.97,SW,229,3.0,9.0,25,0.00,CLR,,0.55,WeatherDisplay:10.37,2013-05-31 20:05:00,
2013-05-31 16:10:00,74.9,36.7,28.94,SW,221,2.0,9.0,25,0.00,CLR,,0.55,WeatherDisplay:10.37,2013-05-31 20:10:00,
2013-05-31 16:15:00,75.7,34.1,28.94,SSW,211,6.0,10.0,22,0.00,CLR,,0.55,WeatherDisplay:10.37,2013-05-31 20:15:00,
2013-05-31 16:20:00,76.3,33.5,28.94,SSW,209,6.0,9.0,21,0.00,CLR,,0.55,WeatherDisplay:10.37,2013-05-31 20:20:00,
2013-05-31 16:25:00,76.5,33.6,28.94,SW,222,6.0,13.0,21,0.00,CLR,,0.55,WeatherDisplay:10.37,2013-05-31 20:25:00,
2013-05-31 16:30:00,76.6,32.5,28.94,SW,227,6.0,9.0,20,0.00,CLR,,0.55,WeatherDisplay:10.37,2013-05-31 20:30:00,
2013-05-31 16:35:00,76.5,32.4,28.94,SW,231,6.0,11.0,20,0.00,CLR,,0.55,WeatherDisplay:10.37,2013-05-31 20:35:00,
2013-05-31 16:40:00,76.2,29.6,28.94,WSW,237,5.0,10.0,18,0.00,CLR,,0.55,WeatherDisplay:10.37,2013-05-31 20:40:00,
2013-05-31 16:45:00,76.6,32.5,28.94,SW,235,3.0,9.0,20,0.00,CLR,,0.55,WeatherDisplay:10.37,2013-05-31 20:45:00,
2013-05-31 16:50:00,76.5,29.8,28.94,SW,226,3.0,8.0,18,0.00,CLR,,0.55,WeatherDisplay:10.37,2013-05-31 20:50:00,
2013-05-31 16:55:00,76.5,29.8,28.94,SW,220,3.0,8.0,18,0.00,CLR,,0.55,WeatherDisplay:10.37,2013-05-31 20:55:00,
2013-05-31 17:00:00,76.5,29.8,28.94,SW,216,3.0,7.0,18,0.00,CLR,,0.55,WeatherDisplay:10.37,2013-05-31 21:00:00,
2013-05-31 17:05:00,76.1,29.5,28.94,SW,235,5.0,9.0,18,0.00,CLR,,0.55,WeatherDisplay:10.37,2013-05-31 21:05:00,
2013-05-31 17:10:00,76.1,29.5,28.94,SW,233,2.0,12.0,18,0.00,CLR,,0.55,WeatherDisplay:10.37,2013-05-31 21:10:00,
2013-05-31 17:15:00,75.9,29.3,28.94,SW,226,6.0,10.0,18,0.00,CLR,,0.55,WeatherDisplay:10.37,2013-05-31 21:15:00,
2013-05-31 17:20:00,75.8,30.6,28.94,WSW,240,2.0,11.0,19,0.00,CLR,,0.55,WeatherDisplay:10.37,2013-05-31 21:20:00,
2013-05-31 17:25:00,75.9,29.3,28.94,WSW,245,6.0,10.0,18,0.00,CLR,,0.55,WeatherDisplay:10.37,2013-05-31 21:25:00,
2013-05-31 17:30:00,76.3,31.0,28.94,SW,231,2.0,6.0,19,0.00,CLR,,0.55,WeatherDisplay:10.37,2013-05-31 21:30:00,
2013-05-31 17:35:00,76.5,29.8,28.94,SW,218,2.0,8.0,18,0.00,CLR,,0.55,WeatherDisplay:10.37,2013-05-31 21:35:00,
2013-05-31 17:40:00,76.3,29.6,28.94,SSW,211,3.0,6.0,18,0.00,CLR,,0.55,WeatherDisplay:10.37,2013-05-31 21:40:00,
2013-05-31 17:45:00,76.1,29.5,28.94,SSW,207,2.0,6.0,18,0.00,CLR,,0.55,WeatherDisplay:10.37,2013-05-31 21:45:00,
2013-05-31 17:50:00,76.2,29.5,28.94,SW,219,0.0,6.0,18,0.00,CLR,,0.55,WeatherDisplay:10.37,2013-05-31 21:50:00,
2013-05-31 17:55:00,76.3,29.6,28.94,SSW,205,2.0,6.0,18,0.00,CLR,,0.55,WeatherDisplay:10.37,2013-05-31 21:55:00,
2013-05-31 18:00:00,76.3,29.6,28.94,SSW,196,2.0,6.0,18,0.00,CLR,,0.55,WeatherDisplay:10.37,2013-05-31 22:00:00,
2013-05-31 18:05:00,76.3,29.6,28.94,SSW,195,2.0,8.0,18,0.00,CLR,,0.55,WeatherDisplay:10.37,2013-05-31 22:05:00,
2013-05-31 18:10:00,76.0,29.4,28.94,South,185,0.0,4.0,18,0.00,CLR,,0.55,WeatherDisplay:10.37,2013-05-31 22:10:00,
2013-05-31 18:15:00,75.7,29.2,28.94,South,184,3.0,6.0,18,0.00,CLR,,0.55,WeatherDisplay:10.37,2013-05-31 22:15:00,
2013-05-31 18:20:00,75.6,29.0,28.94,SSW,195,3.0,6.0,18,0.00,CLR,,0.55,WeatherDisplay:10.37,2013-05-31 22:20:00,
2013-05-31 18:25:00,75.4,28.9,28.94,SW,233,0.0,6.0,18,0.00,CLR,,0.55,WeatherDisplay:10.37,2013-05-31 22:25:00,
2013-05-31 18:30:00,75.2,28.8,28.94,SW,221,0.0,3.0,18,0.00,CLR,,0.55,WeatherDisplay:10.37,2013-05-31 22:30:00,
2013-05-31 18:35:00,75.0,28.6,28.94,SSW,208,3.0,6.0,18,0.00,CLR,,0.55,WeatherDisplay:10.37,2013-05-31 22:35:00,
2013-05-31 18:40:00,75.0,28.6,28.94,SW,216,0.0,4.0,18,0.00,CLR,,0.55,WeatherDisplay:10.37,2013-05-31 22:40:00,
2013-05-31 18:45:00,74.8,28.5,28.94,SW,218,0.0,3.0,18,0.00,CLR,,0.55,WeatherDisplay:10.37,2013-05-31 22:45:00,
2013-05-31 18:50:00,74.8,28.5,28.94,SSW,199,0.0,4.0,18,0.00,CLR,,0.55,WeatherDisplay:10.37,2013-05-31 22:50:00,
2013-05-31 18:55:00,74.8,28.5,28.94,South,189,0.0,6.0,18,0.00,CLR,,0.55,WeatherDisplay:10.37,2013-05-31 22:55:00,
2013-05-31 19:00:00,74.8,28.5,28.94,SSW,203,0.0,4.0,18,0.00,CLR,,0.55,WeatherDisplay:10.37,2013-05-31 23:00:00,
2013-05-31 19:05:00,74.8,28.5,28.94,SSW,201,1.0,4.0,18,0.00,CLR,,0.55,WeatherDisplay:10.37,2013-05-31 23:05:00,
2013-05-31 19:10:00,74.8,31.1,28.91,SSW,198,0.0,3.0,20,0.00,CLR,,0.55,WeatherDisplay:10.37,2013-05-31 23:10:00,
2013-05-31 19:15:00,74.8,32.3,28.91,South,184,0.0,6.0,21,0.00,CLR,,0.55,WeatherDisplay:10.37,2013-05-31 23:15:00,
2013-05-31 19:20:00,74.8,32.3,28.91,South,188,0.0,6.0,21,0.00,CLR,,0.55,WeatherDisplay:10.37,2013-05-31 23:20:00,
2013-05-31 19:25:00,74.7,28.3,28.91,SSW,211,0.0,5.0,18,0.00,CLR,,0.55,WeatherDisplay:10.37,2013-05-31 23:25:00,
2013-05-31 19:30:00,74.7,28.3,28.91,SW,229,2.0,5.0,18,0.00,CLR,,0.55,WeatherDisplay:10.37,2013-05-31 23:30:00,
2013-05-31 19:35:00,74.5,28.2,28.91,WSW,242,1.0,6.0,18,0.00,CLR,,0.55,WeatherDisplay:10.37,2013-05-31 23:35:00,
2013-05-31 19:40:00,74.5,28.2,28.94,SW,226,1.0,7.0,18,0.00,CLR,,0.55,WeatherDisplay:10.37,2013-05-31 23:40:00,
2013-05-31 19:45:00,74.3,28.0,28.94,SSW,204,3.0,7.0,18,0.00,CLR,,0.55,WeatherDisplay:10.37,2013-05-31 23:45:00,
2013-05-31 19:50:00,74.3,28.0,28.94,SSW,193,3.0,6.0,18,0.00,CLR,,0.55,WeatherDisplay:10.37,2013-05-31 23:50:00,
2013-05-31 19:55:00,74.1,31.7,28.94,South,179,2.0,6.0,21,0.00,CLR,,0.55,WeatherDisplay:10.37,2013-05-31 23:55:00,
2013-05-31 20:00:00,74.1,27.9,28.94,South,180,1.0,8.0,18,0.00,CLR,,0.55,WeatherDisplay:10.37,2013-06-01 00:00:00,
2013-05-31 20:05:00,74.2,31.8,28.94,South,173,3.0,8.0,21,0.00,CLR,,0.55,WeatherDisplay:10.37,2013-06-01 00:05:00,
2013-05-31 20:10:00,74.3,28.0,28.91,South,185,0.0,6.0,18,0.00,CLR,,0.55,WeatherDisplay:10.37,2013-06-01 00:10:00,
2013-05-31 20:15:00,74.0,31.5,28.91,SSW,192,3.0,6.0,21,0.00,CLR,,0.55,WeatherDisplay:10.37,2013-06-01 00:15:00,
2013-05-31 20:20:00,73.6,31.2,28.91,South,190,3.0,6.0,21,0.00,CLR,,0.55,WeatherDisplay:10.37,2013-06-01 00:20:00,
2013-05-31 20:25:00,73.2,30.9,28.91,SSE,166,2.0,5.0,21,0.00,CLR,,0.55,WeatherDisplay:10.37,2013-06-01 00:25:00,
2013-05-31 20:30:00,72.9,30.6,28.91,South,188,2.0,6.0,21,0.00,CLR,,0.55,WeatherDisplay:10.37,2013-06-01 00:30:00,
2013-05-31 20:35:00,72.7,30.5,28.91,SSW,212,2.0,6.0,21,0.00,CLR,,0.55,WeatherDisplay:10.37,2013-06-01 00:35:00,
2013-05-31 20:40:00,72.5,31.5,28.91,SSE,153,2.0,8.0,22,0.00,CLR,,0.55,WeatherDisplay:10.37,2013-06-01 00:40:00,
2013-05-31 20:55:00,72.0,31.0,28.91,South,177,2.0,6.0,22,0.00,CLR,,0.55,WeatherDisplay:10.37,2013-06-01 00:55:00,
2013-05-31 21:00:00,71.8,30.9,28.91,South,178,3.0,6.0,22,0.00,CLR,,0.55,WeatherDisplay:10.37,2013-06-01 01:00:00,
2013-05-31 21:05:00,71.8,30.9,28.91,South,174,0.0,6.0,22,0.00,CLR,,0.55,WeatherDisplay:10.37,2013-06-01 01:05:00,
2013-05-31 21:10:00,71.6,30.7,28.91,South,175,0.0,5.0,22,0.00,CLR,,0.55,WeatherDisplay:10.37,2013-06-01 01:10:00,
2013-05-31 21:15:00,71.6,31.8,28.91,SSE,165,3.0,6.0,23,0.00,CLR,,0.55,WeatherDisplay:10.37,2013-06-01 01:15:00,
2013-05-31 21:20:00,71.6,31.8,28.91,SSE,168,3.0,6.0,23,0.00,CLR,,0.55,WeatherDisplay:10.37,2013-06-01 01:20:00,
2013-05-31 21:25:00,71.8,32.0,28.91,South,173,1.0,6.0,23,0.00,CLR,,0.55,WeatherDisplay:10.37,2013-06-01 01:25:00,
2013-05-31 21:30:00,71.8,32.0,28.91,SSE,157,3.0,6.0,23,0.00,CLR,,0.55,WeatherDisplay:10.37,2013-06-01 01:30:00,
2013-05-31 21:35:00,71.8,32.0,28.91,SSE,154,2.0,6.0,23,0.00,CLR,,0.55,WeatherDisplay:10.37,2013-06-01 01:35:00,
2013-05-31 21:40:00,71.8,32.0,28.91,SSE,162,0.0,6.0,23,0.00,CLR,,0.55,WeatherDisplay:10.37,2013-06-01 01:40:00,
2013-05-31 21:45:00,71.8,32.0,28.91,SSE,147,3.0,6.0,23,0.00,CLR,,0.55,WeatherDisplay:10.37,2013-06-01 01:45:00,
2013-05-31 21:50:00,71.6,31.8,28.91,South,174,3.0,5.0,23,0.00,CLR,,0.55,WeatherDisplay:10.37,2013-06-01 01:50:00,
2013-05-31 21:55:00,71.6,31.8,28.91,SSE,167,0.0,6.0,23,0.00,CLR,,0.55,WeatherDisplay:10.37,2013-06-01 01:55:00,
2013-05-31 22:00:00,71.4,31.7,28.91,SSE,163,2.0,5.0,23,0.00,CLR,,0.55,WeatherDisplay:10.37,2013-06-01 02:00:00,
2013-05-31 22:05:00,71.4,31.7,28.91,SSE,158,3.0,6.0,23,0.00,CLR,,0.55,WeatherDisplay:10.37,2013-06-01 02:05:00,
2013-05-31 22:10:00,71.4,31.7,28.91,SSE,148,3.0,6.0,23,0.00,CLR,,0.55,WeatherDisplay:10.37,2013-06-01 02:10:00,
2013-05-31 22:15:00,71.4,31.7,28.91,SSE,152,2.0,8.0,23,0.00,CLR,,0.55,WeatherDisplay:10.37,2013-06-01 02:15:00,
2013-05-31 22:20:00,71.4,31.7,28.91,SSE,150,2.0,6.0,23,0.00,CLR,,0.55,WeatherDisplay:10.37,2013-06-01 02:20:00,
2013-05-31 22:30:00,71.2,31.5,28.91,SSE,151,2.0,6.0,23,0.00,CLR,,0.55,WeatherDisplay:10.37,2013-06-01 02:30:00,
2013-05-31 22:35:00,71.2,31.5,28.91,SE,141,2.0,6.0,23,0.00,CLR,,0.55,WeatherDisplay:10.37,2013-06-01 02:35:00,
2013-05-31 22:45:00,71.2,32.6,28.94,SE,131,0.0,4.0,24,0.00,CLR,,0.55,WeatherDisplay:10.37,2013-06-01 02:45:00,
2013-05-31 22:50:00,71.2,32.6,28.94,SE,128,0.0,4.0,24,0.00,CLR,,0.55,WeatherDisplay:10.37,2013-06-01 02:50:00,
2013-05-31 22:55:00,71.2,32.6,28.94,SE,139,2.0,6.0,24,0.00,CLR,,0.55,WeatherDisplay:10.37,2013-06-01 02:55:00,
2013-05-31 23:00:00,71.2,32.6,28.94,SSE,158,0.0,6.0,24,0.00,CLR,,0.55,WeatherDisplay:10.37,2013-06-01 03:00:00,
2013-05-31 23:05:00,71.2,32.6,28.94,SSE,161,0.0,6.0,24,0.00,CLR,,0.55,WeatherDisplay:10.37,2013-06-01 03:05:00,
2013-05-31 23:10:00,71.4,33.7,28.94,SSE,148,0.0,5.0,25,0.00,CLR,,0.55,WeatherDisplay:10.37,2013-06-01 03:10:00,
2013-05-31 23:15:00,71.4,33.7,28.94,South,174,2.0,4.0,25,0.00,CLR,,0.55,WeatherDisplay:10.37,2013-06-01 03:15:00,
2013-05-31 23:20:00,71.6,32.9,28.94,SSE,159,0.0,6.0,24,0.00,CLR,,0.55,WeatherDisplay:10.37,2013-06-01 03:20:00,
2013-05-31 23:25:00,71.6,33.9,28.94,South,169,0.0,3.0,25,0.00,CLR,,0.55,WeatherDisplay:10.37,2013-06-01 03:25:00,
2013-05-31 23:35:00,72.0,34.2,28.94,SSE,163,3.0,8.0,25,0.00,CLR,,0.55,WeatherDisplay:10.37,2013-06-01 03:35:00,
2013-05-31 23:40:00,72.0,34.2,28.94,SSE,168,2.0,6.0,25,0.00,CLR,,0.55,WeatherDisplay:10.37,2013-06-01 03:40:00,
2013-05-31 23:45:00,72.0,34.2,28.94,South,191,3.0,7.0,25,0.00,CLR,,0.55,WeatherDisplay:10.37,2013-06-01 03:45:00,
2013-05-31 23:50:00,72.0,34.2,28.94,South,171,2.0,7.0,25,0.00,CLR,,0.55,WeatherDisplay:10.37,2013-06-01 03:50:00,
2013-05-31 23:55:00,72.1,34.4,28.94,South,188,3.0,6.0,25,0.00,CLR,,0.55,WeatherDisplay:10.37,2013-06-01 03:55:00,